Location: Tel Aviv
(32.0670°N, 34.7670°E)
Time: 02:41:38
(UTC+03:00)

Vanguard 3 - All Passes

Search period start: 09 October 2024 00:00
Search period end: 19 October 2024 00:00
Orbit: 507 x 3223 km, 33.3° (Epoch: 08 October)

Date Brightness Start Highest point End Pass type
(mag) Time Alt. Az. Time Alt. Az. Time Alt. Az.
09 Oct - 01:27:20 10° WSW 01:33:51 88° SSE 01:45:56 10° E visible
09 Oct - 03:38:04 10° W 03:47:22 87° N 04:03:56 10° E visible
09 Oct - 05:49:40 10° WNW 06:02:11 67° SSW 06:21:08 10° SE visible
09 Oct - 08:03:38 10° W 08:17:26 35° SW 08:33:53 10° SSE daylight
09 Oct - 22:02:30 10° SSE 22:04:17 12° SE 22:06:20 10° ESE night (unlit)
10 Oct - 00:09:06 10° WSW 00:14:17 64° SSE 00:23:22 10° ENE visible
10 Oct - 02:19:14 10° W 02:26:37 83° N 02:40:17 10° E visible
10 Oct - 04:30:13 10° WNW 04:40:36 81° SSW 04:58:18 10° ESE visible
10 Oct - 06:42:28 10° W 06:55:33 48° SSW 07:13:39 10° SE daylight
10 Oct - 08:59:31 10° W 09:10:33 20° SW 09:22:38 10° S daylight
10 Oct - 22:51:27 10° SSW 22:55:27 32° SE 23:01:24 10° E night (unlit)
11 Oct - 01:00:42 10° WSW 01:06:32 90° SE 01:17:12 10° E visible
11 Oct - 03:11:14 10° W 03:19:34 88° N 03:34:47 10° E visible
11 Oct - 05:22:30 10° W 05:33:49 63° SSW 05:51:52 10° SE visible
11 Oct - 07:36:11 10° W 07:48:48 32° SW 08:04:37 10° SSE daylight
11 Oct - 21:35:39 10° SSE 21:37:05 11° SE 21:38:38 10° ESE night (unlit)
11 Oct - 23:42:25 10° WSW 23:47:06 65° SSE 23:54:59 10° ENE night (unlit)
12 Oct - 01:52:30 10° W 01:59:06 82° N 02:11:19 10° E visible
12 Oct - 04:03:13 10° WNW 04:12:32 78° SSW 04:29:00 10° ESE visible
12 Oct - 06:15:11 10° W 06:27:01 45° SSW 06:44:16 10° SE visible
12 Oct - 08:32:16 10° WSW 08:41:59 18° SW 08:52:57 10° S daylight
12 Oct - 22:24:38 10° SSW 22:28:18 32° SSE 22:33:27 10° E night (unlit)
13 Oct - 00:33:59 10° W 00:39:13 88° N 00:48:33 10° E visible
13 Oct - 02:44:21 10° W 02:51:49 89° NNE 03:05:36 10° ESE visible
13 Oct - 04:55:22 10° W 05:05:32 59° SSW 05:22:25 10° SE visible
13 Oct - 07:08:52 10° W 07:20:14 29° SW 07:35:01 10° SSE daylight
13 Oct - 21:08:30 10° SSE 21:09:49 11° SE 21:11:13 10° ESE night (unlit)
13 Oct - 23:15:39 10° WSW 23:19:54 67° SSE 23:26:43 10° E night (unlit)
14 Oct - 01:25:43 10° W 01:31:37 81° N 01:42:24 10° E visible
14 Oct - 03:36:13 10° W 03:44:33 75° SSW 03:59:37 10° ESE visible
14 Oct - 05:47:57 10° W 05:58:36 41° SSW 06:14:38 10° SSE visible
14 Oct - 08:05:19 10° WSW 08:13:27 16° SW 08:22:45 10° S daylight
14 Oct - 21:57:40 10° SW 22:01:06 32° SSE 22:05:36 10° E night (unlit)
15 Oct - 00:07:11 10° W 00:11:55 85° N 00:19:59 10° E night (unlit)
15 Oct - 02:17:27 10° W 02:24:06 90° S 02:36:26 10° ESE visible
15 Oct - 04:28:15 10° W 04:37:20 55° SSW 04:52:50 10° SE visible
15 Oct - 06:41:40 10° W 06:51:43 26° SSW 07:05:07 10° SSE daylight
15 Oct - 20:40:59 10° S 20:42:28 12° SE 20:44:02 10° ESE night (unlit)
15 Oct - 22:48:44 10° WSW 22:52:40 69° SSE 22:58:34 10° E night (unlit)
16 Oct - 00:58:51 10° W 01:04:09 80° N 01:13:35 10° E visible
16 Oct - 03:09:11 10° W 03:16:37 71° SSW 03:30:11 10° ESE visible
16 Oct - 05:20:46 10° W 05:30:15 37° SSW 05:44:49 10° SSE visible
16 Oct - 07:38:51 10° WSW 07:44:57 13° SW 07:51:52 10° SSW daylight
16 Oct - 21:30:31 10° SW 21:33:51 33° SSE 21:37:53 10° E night (unlit)
16 Oct - 23:40:17 10° W 23:44:36 82° N 23:51:33 10° E night (unlit)
17 Oct - 01:50:29 10° W 01:56:26 87° SSW 02:07:19 10° ESE visible
17 Oct - 04:01:08 10° W 04:09:13 50° SSW 04:23:09 10° SE visible
17 Oct - 06:14:36 10° WSW 06:23:17 22° SSW 06:34:55 10° S visible
17 Oct - 20:13:11 10° S 20:15:05 13° SSE 20:16:59 10° ESE visible
17 Oct - 22:21:40 10° WSW 22:25:25 72° SSE 22:30:32 10° E night (unlit)
18 Oct - 00:31:54 10° W 00:36:40 80° N 00:44:50 10° E night (unlit)
18 Oct - 02:42:07 10° W 02:48:45 66° SSW 03:00:46 10° ESE visible
18 Oct - 04:53:39 10° W 05:01:59 32° SSW 05:14:50 10° SSE visible
18 Oct - 07:13:49 10° SW 07:16:31 11° SW 07:19:24 10° SSW daylight
18 Oct - 21:03:09 10° SW 21:06:32 35° SSE 21:10:15 10° E visible
18 Oct - 23:13:15 10° W 23:17:15 79° N 23:23:14 10° E night (unlit)
